Time,TemperatureF,DewpointF,PressureIn,WindDirection,WindDirectionDegrees,WindSpeedMPH,WindSpeedGustMPH,Humidity,HourlyPrecipIn,Conditions,Clouds,dailyrainin,SoftwareType,DateUTC
2013-01-12 00:03:00,26.7,25.5,29.49,WSW,257,15.0,19.0,95,0.00,,,0.00,Wunderground v.1.15,2013-01-12 06:03:00,
2013-01-12 00:10:00,26.6,25.1,29.50,West,266,15.0,18.0,94,0.00,,,0.00,Wunderground v.1.15,2013-01-12 06:10:00,
2013-01-12 00:12:00,26.6,25.4,29.50,West,260,15.0,18.0,95,0.00,,,0.00,Wunderground v.1.15,2013-01-12 06:12:00,
2013-01-12 00:16:00,26.5,25.0,29.50,West,266,15.0,18.0,94,0.00,,,0.00,Wunderground v.1.15,2013-01-12 06:16:00,
2013-01-12 00:18:00,26.4,24.9,29.51,WSW,242,16.0,18.0,94,0.00,,,0.00,Wunderground v.1.15,2013-01-12 06:18:00,
2013-01-12 00:20:00,26.3,24.8,29.51,West,273,16.0,17.0,94,0.00,,,0.00,Wunderground v.1.15,2013-01-12 06:20:00,
2013-01-12 00:23:00,26.1,24.6,29.51,West,264,16.0,22.0,94,0.00,,,0.00,Wunderground v.1.15,2013-01-12 06:23:00,
2013-01-12 00:26:00,26.0,24.3,29.51,WNW,283,17.0,22.0,93,0.00,,,0.00,Wunderground v.1.15,2013-01-12 06:26:00,
2013-01-12 00:32:00,25.8,24.1,29.52,West,259,18.0,19.0,93,0.00,,,0.00,Wunderground v.1.15,2013-01-12 06:32:00,
2013-01-12 00:34:00,25.6,23.9,29.52,WSW,256,18.0,19.0,93,0.00,,,0.00,Wunderground v.1.15,2013-01-12 06:34:00,
2013-01-12 00:40:00,25.2,23.5,29.53,WSW,257,19.0,19.0,93,0.00,,,0.00,Wunderground v.1.15,2013-01-12 06:40:00,
2013-01-12 00:45:00,25.0,23.0,29.54,West,276,18.0,19.0,92,0.00,,,0.00,Wunderground v.1.15,2013-01-12 06:45:00,
2013-01-12 00:48:00,25.0,23.0,29.54,WNW,284,18.0,19.0,92,0.00,,,0.00,Wunderground v.1.15,2013-01-12 06:48:00,
2013-01-12 00:52:00,24.8,22.8,29.54,WNW,285,18.0,26.0,92,0.00,,,0.00,Wunderground v.1.15,2013-01-12 06:52:00,
2013-01-12 00:54:00,24.7,22.4,29.55,West,276,18.0,26.0,91,0.00,,,0.00,Wunderground v.1.15,2013-01-12 06:54:00,
2013-01-12 00:58:00,24.4,22.2,29.55,WSW,253,19.0,26.0,91,0.00,,,0.00,Wunderground v.1.15,2013-01-12 06:58:00,
2013-01-12 01:00:00,24.2,21.7,29.55,West,271,19.0,19.0,90,0.00,,,0.00,Wunderground v.1.15,2013-01-12 07:00:00,
2013-01-12 01:02:00,24.2,22.0,29.56,WSW,252,19.0,27.0,91,0.00,,,0.00,Wunderground v.1.15,2013-01-12 07:02:00,
2013-01-12 01:06:00,23.9,21.4,29.56,West,273,20.0,29.0,90,0.00,,,0.00,Wunderground v.1.15,2013-01-12 07:06:00,
2013-01-12 01:12:00,23.7,20.9,29.56,West,276,20.0,29.0,89,0.00,,,0.00,Wunderground v.1.15,2013-01-12 07:12:00,
2013-01-12 01:16:00,23.6,20.8,29.57,West,276,19.0,29.0,89,0.00,,,0.00,Wunderground v.1.15,2013-01-12 07:16:00,
2013-01-12 01:17:00,23.5,20.7,29.57,West,270,19.0,29.0,89,0.00,,,0.00,Wunderground v.1.15,2013-01-12 07:17:00,
2013-01-12 01:19:00,23.4,20.4,29.57,West,276,19.0,19.0,88,0.00,,,0.00,Wunderground v.1.15,2013-01-12 07:19:00,
2013-01-12 01:22:00,23.3,20.5,29.57,WNW,289,19.0,29.0,89,0.00,,,0.00,Wunderground v.1.15,2013-01-12 07:22:00,
2013-01-12 01:26:00,23.1,20.1,29.57,West,266,18.0,29.0,88,0.00,,,0.00,Wunderground v.1.15,2013-01-12 07:26:00,
2013-01-12 01:28:00,23.1,20.3,29.58,West,260,18.0,29.0,89,0.00,,,0.00,Wunderground v.1.15,2013-01-12 07:28:00,
2013-01-12 01:30:00,23.1,20.3,29.58,West,266,18.0,29.0,89,0.00,,,0.00,Wunderground v.1.15,2013-01-12 07:30:00,
2013-01-12 01:34:00,23.0,20.0,29.58,WNW,285,19.0,29.0,88,0.00,,,0.00,Wunderground v.1.15,2013-01-12 07:34:00,
2013-01-12 01:36:00,22.9,20.1,29.58,West,269,19.0,29.0,89,0.00,,,0.00,Wunderground v.1.15,2013-01-12 07:36:00,
2013-01-12 01:40:00,22.7,19.7,29.59,West,267,19.0,19.0,88,0.00,,,0.00,Wunderground v.1.15,2013-01-12 07:40:00,
2013-01-12 01:42:00,22.5,19.2,29.59,WNW,287,19.0,29.0,87,0.00,,,0.00,Wunderground v.1.15,2013-01-12 07:42:00,
2013-01-12 01:44:00,22.4,19.1,29.59,West,279,19.0,29.0,87,0.00,,,0.00,Wunderground v.1.15,2013-01-12 07:44:00,
2013-01-12 01:46:00,22.2,18.9,29.59,West,271,18.0,29.0,87,0.00,,,0.00,Wunderground v.1.15,2013-01-12 07:46:00,
2013-01-12 01:48:00,22.1,18.8,29.60,WNW,294,18.0,29.0,87,0.00,,,0.00,Wunderground v.1.15,2013-01-12 07:48:00,
2013-01-12 01:50:00,22.0,18.7,29.60,WSW,255,18.0,18.0,87,0.00,,,0.00,Wunderground v.1.15,2013-01-12 07:50:00,
2013-01-12 01:54:00,21.9,18.9,29.60,West,276,18.0,29.0,88,0.00,,,0.00,Wunderground v.1.15,2013-01-12 07:54:00,
2013-01-12 01:56:00,21.9,18.9,29.60,West,267,17.0,29.0,88,0.00,,,0.00,Wunderground v.1.15,2013-01-12 07:56:00,
2013-01-12 02:00:00,21.8,19.1,29.61,West,273,16.0,29.0,89,0.00,,,0.00,Wunderground v.1.15,2013-01-12 08:00:00,
2013-01-12 02:02:00,21.7,18.7,29.61,West,273,16.0,29.0,88,0.00,,,0.00,Wunderground v.1.15,2013-01-12 08:02:00,
2013-01-12 02:06:00,21.5,18.0,29.62,WSW,250,18.0,29.0,86,0.00,,,0.00,Wunderground v.1.15,2013-01-12 08:06:00,
2013-01-12 02:08:00,21.3,17.5,29.62,West,280,19.0,29.0,85,0.00,,,0.00,Wunderground v.1.15,2013-01-12 08:08:00,
2013-01-12 02:12:00,21.2,17.9,29.62,WSW,256,20.0,26.0,87,0.00,,,0.00,Wunderground v.1.15,2013-01-12 08:12:00,
2013-01-12 02:16:00,20.9,17.4,29.63,WNW,286,20.0,29.0,86,0.00,,,0.00,Wunderground v.1.15,2013-01-12 08:16:00,
2013-01-12 02:18:00,20.9,17.4,29.63,WSW,248,20.0,29.0,86,0.00,,,0.00,Wunderground v.1.15,2013-01-12 08:18:00,
2013-01-12 02:22:00,20.6,16.8,29.64,WSW,253,21.0,29.0,85,0.00,,,0.00,Wunderground v.1.15,2013-01-12 08:22:00,
2013-01-12 02:24:00,20.4,16.3,29.64,WSW,258,21.0,29.0,84,0.00,,,0.00,Wunderground v.1.15,2013-01-12 08:24:00,
2013-01-12 02:28:00,20.2,16.4,29.64,West,266,21.0,29.0,85,0.00,,,0.00,Wunderground v.1.15,2013-01-12 08:28:00,
2013-01-12 02:30:00,20.2,16.4,29.64,West,259,21.0,29.0,85,0.00,,,0.00,Wunderground v.1.15,2013-01-12 08:30:00,
2013-01-12 02:36:00,19.7,16.2,29.64,West,280,20.0,29.0,86,0.00,,,0.00,Wunderground v.1.15,2013-01-12 08:36:00,
2013-01-12 02:38:00,19.5,16.0,29.65,West,270,21.0,29.0,86,0.00,,,0.00,Wunderground v.1.15,2013-01-12 08:38:00,
2013-01-12 02:42:00,19.2,15.4,29.65,WNW,284,22.0,29.0,85,0.00,,,0.00,Wunderground v.1.15,2013-01-12 08:42:00,
2013-01-12 02:44:00,19.2,15.4,29.65,West,269,22.0,29.0,85,0.00,,,0.00,Wunderground v.1.15,2013-01-12 08:44:00,
2013-01-12 02:46:00,19.1,15.6,29.65,West,260,23.0,29.0,86,0.00,,,0.00,Wunderground v.1.15,2013-01-12 08:46:00,
2013-01-12 02:52:00,18.6,14.6,29.67,WNW,288,23.0,29.0,84,0.00,,,0.00,Wunderground v.1.15,2013-01-12 08:52:00,
2013-01-12 02:56:00,18.4,14.1,29.67,West,277,22.0,29.0,83,0.00,,,0.00,Wunderground v.1.15,2013-01-12 08:56:00,
2013-01-12 02:58:00,18.2,13.9,29.68,West,270,20.0,29.0,83,0.00,,,0.00,Wunderground v.1.15,2013-01-12 08:58:00,
2013-01-12 03:00:00,18.1,14.1,29.68,WNW,284,19.0,19.0,84,0.00,,,0.00,Wunderground v.1.15,2013-01-12 09:00:00,
2013-01-12 03:04:00,18.0,14.3,29.68,West,268,18.0,29.0,85,0.00,,,0.00,Wunderground v.1.15,2013-01-12 09:04:00,
2013-01-12 03:07:00,17.9,14.2,29.68,West,267,18.0,29.0,85,0.00,,,0.00,Wunderground v.1.15,2013-01-12 09:07:00,
2013-01-12 03:09:00,17.9,14.2,29.68,West,280,18.0,29.0,85,0.00,,,0.00,Wunderground v.1.15,2013-01-12 09:09:00,
2013-01-12 03:14:00,17.8,14.3,29.68,WNW,285,18.0,29.0,86,0.00,,,0.00,Wunderground v.1.15,2013-01-12 09:14:00,
2013-01-12 03:16:00,17.6,13.6,29.68,WSW,258,18.0,29.0,84,0.00,,,0.00,Wunderground v.1.15,2013-01-12 09:16:00,
2013-01-12 03:22:00,16.8,12.3,29.68,West,276,21.0,29.0,82,0.00,,,0.00,Wunderground v.1.15,2013-01-12 09:22:00,
2013-01-12 03:26:00,16.5,12.0,29.69,West,276,22.0,29.0,82,0.00,,,0.00,Wunderground v.1.15,2013-01-12 09:26:00,
2013-01-12 03:31:00,16.3,11.8,29.69,WNW,288,21.0,29.0,82,0.00,,,0.00,Wunderground v.1.15,2013-01-12 09:31:00,
2013-01-12 03:34:00,16.2,11.9,29.70,West,271,20.0,29.0,83,0.00,,,0.00,Wunderground v.1.15,2013-01-12 09:34:00,
2013-01-12 03:40:00,16.1,11.8,29.71,NW,313,18.0,18.0,83,0.00,,,0.00,Wunderground v.1.15,2013-01-12 09:40:00,
2013-01-12 03:42:00,16.1,12.1,29.72,West,267,18.0,29.0,84,0.00,,,0.00,Wunderground v.1.15,2013-01-12 09:42:00,
2013-01-12 03:46:00,16.2,12.2,29.72,West,280,18.0,29.0,84,0.00,,,0.00,Wunderground v.1.15,2013-01-12 09:46:00,
2013-01-12 03:50:00,16.2,12.5,29.72,West,260,16.0,16.0,85,0.00,,,0.00,Wunderground v.1.15,2013-01-12 09:50:00,
2013-01-12 03:51:00,16.2,12.5,29.72,West,267,16.0,20.0,85,0.00,,,0.00,Wunderground v.1.15,2013-01-12 09:51:00,
2013-01-12 03:58:00,15.9,11.9,29.73,WNW,284,17.0,29.0,84,0.00,,,0.00,Wunderground v.1.15,2013-01-12 09:58:00,
2013-01-12 04:02:00,15.7,11.5,29.73,WNW,287,17.0,29.0,83,0.00,,,0.00,Wunderground v.1.15,2013-01-12 10:02:00,
2013-01-12 04:04:00,15.5,10.7,29.73,WNW,287,17.0,29.0,81,0.00,,,0.00,Wunderground v.1.15,2013-01-12 10:04:00,
2013-01-12 04:08:00,15.2,10.4,29.73,WNW,298,18.0,29.0,81,0.00,,,0.00,Wunderground v.1.15,2013-01-12 10:08:00,
2013-01-12 04:10:00,15.1,10.6,29.73,WNW,283,18.0,29.0,82,0.00,,,0.00,Wunderground v.1.15,2013-01-12 10:10:00,
2013-01-12 04:13:00,15.1,10.9,29.74,WNW,300,17.0,29.0,83,0.00,,,0.00,Wunderground v.1.15,2013-01-12 10:13:00,
2013-01-12 04:15:00,15.1,10.6,29.74,WNW,294,16.0,29.0,82,0.00,,,0.00,Wunderground v.1.15,2013-01-12 10:15:00,
2013-01-12 04:20:00,15.0,9.9,29.74,WNW,301,16.0,29.0,80,0.00,,,0.00,Wunderground v.1.15,2013-01-12 10:20:00,
2013-01-12 04:24:00,14.9,10.1,29.74,West,273,16.0,29.0,81,0.00,,,0.00,Wunderground v.1.15,2013-01-12 10:24:00,
2013-01-12 04:26:00,14.9,10.1,29.75,WNW,290,16.0,29.0,81,0.00,,,0.00,Wunderground v.1.15,2013-01-12 10:26:00,
2013-01-12 04:30:00,14.9,10.4,29.75,WNW,285,16.0,16.0,82,0.00,,,0.00,Wunderground v.1.15,2013-01-12 10:30:00,
2013-01-12 04:33:00,14.8,10.3,29.75,West,275,16.0,20.0,82,0.00,,,0.00,Wunderground v.1.15,2013-01-12 10:33:00,
2013-01-12 04:35:00,14.8,10.3,29.75,WNW,303,17.0,29.0,82,0.00,,,0.00,Wunderground v.1.15,2013-01-12 10:35:00,
2013-01-12 04:38:00,14.7,10.2,29.75,West,277,17.0,29.0,82,0.00,,,0.00,Wunderground v.1.15,2013-01-12 10:38:00,
2013-01-12 04:40:00,14.7,9.9,29.75,West,275,17.0,29.0,81,0.00,,,0.00,Wunderground v.1.15,2013-01-12 10:40:00,
2013-01-12 04:46:00,14.5,10.0,29.76,WNW,300,17.0,29.0,82,0.00,,,0.00,Wunderground v.1.15,2013-01-12 10:46:00,
2013-01-12 04:52:00,14.5,10.3,29.76,West,270,17.0,29.0,83,0.00,,,0.00,Wunderground v.1.15,2013-01-12 10:52:00,
2013-01-12 04:54:00,14.5,10.0,29.76,WNW,287,17.0,29.0,82,0.00,,,0.00,Wunderground v.1.15,2013-01-12 10:54:00,
2013-01-12 04:57:00,14.4,9.9,29.76,West,260,17.0,29.0,82,0.00,,,0.00,Wunderground v.1.15,2013-01-12 10:57:00,
2013-01-12 05:00:00,14.4,10.2,29.77,West,280,17.0,29.0,83,0.00,,,0.00,Wunderground v.1.15,2013-01-12 11:00:00,
2013-01-12 05:02:00,14.4,10.2,29.77,West,276,17.0,29.0,83,0.00,,,0.00,Wunderground v.1.15,2013-01-12 11:02:00,
2013-01-12 05:06:00,14.2,9.2,29.77,West,277,18.0,29.0,80,0.00,,,0.00,Wunderground v.1.15,2013-01-12 11:06:00,
2013-01-12 05:08:00,14.2,9.2,29.77,West,273,19.0,29.0,80,0.00,,,0.00,Wunderground v.1.15,2013-01-12 11:08:00,
2013-01-12 05:10:00,14.1,9.1,29.77,WNW,298,19.0,19.0,80,0.00,,,0.00,Wunderground v.1.15,2013-01-12 11:10:00,
2013-01-12 05:12:00,14.0,9.0,29.77,WNW,288,19.0,21.0,80,0.00,,,0.00,Wunderground v.1.15,2013-01-12 11:12:00,
2013-01-12 05:14:00,14.0,9.2,29.78,West,259,19.0,29.0,81,0.00,,,0.00,Wunderground v.1.15,2013-01-12 11:14:00,
2013-01-12 05:19:00,13.8,9.3,29.78,WNW,295,16.0,29.0,82,0.00,,,0.00,Wunderground v.1.15,2013-01-12 11:19:00,
2013-01-12 05:22:00,13.7,9.0,29.78,West,276,15.0,29.0,81,0.00,,,0.00,Wunderground v.1.15,2013-01-12 11:22:00,
2013-01-12 05:26:00,13.4,8.1,29.78,NW,308,14.0,29.0,79,0.00,,,0.00,Wunderground v.1.15,2013-01-12 11:26:00,
2013-01-12 05:28:00,13.2,7.9,29.79,WNW,293,14.0,29.0,79,0.00,,,0.00,Wunderground v.1.15,2013-01-12 11:28:00,
2013-01-12 05:30:00,13.1,7.8,29.79,WNW,287,15.0,15.0,79,0.00,,,0.00,Wunderground v.1.15,2013-01-12 11:30:00,
2013-01-12 05:34:00,13.0,7.7,29.79,WNW,301,15.0,18.0,79,0.00,,,0.00,Wunderground v.1.15,2013-01-12 11:34:00,
2013-01-12 05:37:00,12.9,7.6,29.80,WNW,293,15.0,29.0,79,0.00,,,0.00,Wunderground v.1.15,2013-01-12 11:37:00,
2013-01-12 05:39:00,12.9,7.9,29.80,WNW,290,15.0,15.0,80,0.00,,,0.00,Wunderground v.1.15,2013-01-12 11:39:00,
2013-01-12 05:42:00,12.8,8.1,29.80,WNW,287,14.0,29.0,81,0.00,,,0.00,Wunderground v.1.15,2013-01-12 11:42:00,
2013-01-12 05:44:00,12.8,7.8,29.80,WNW,290,14.0,29.0,80,0.00,,,0.00,Wunderground v.1.15,2013-01-12 11:44:00,
2013-01-12 05:48:00,12.8,7.8,29.80,WNW,297,13.0,29.0,80,0.00,,,0.00,Wunderground v.1.15,2013-01-12 11:48:00,
2013-01-12 05:50:00,12.8,7.8,29.80,WNW,300,14.0,14.0,80,0.00,,,0.00,Wunderground v.1.15,2013-01-12 11:50:00,
2013-01-12 05:52:00,12.8,7.8,29.80,WNW,301,15.0,15.0,80,0.00,,,0.00,Wunderground v.1.15,2013-01-12 11:52:00,
2013-01-12 05:54:00,12.8,7.8,29.80,WNW,287,16.0,16.0,80,0.00,,,0.00,Wunderground v.1.15,2013-01-12 11:54:00,
2013-01-12 05:58:00,12.9,8.2,29.80,West,269,16.0,29.0,81,0.00,,,0.00,Wunderground v.1.15,2013-01-12 11:58:00,
2013-01-12 05:59:00,12.9,8.2,29.80,West,275,15.0,15.0,81,0.00,,,0.00,Wunderground v.1.15,2013-01-12 11:59:00,
2013-01-12 06:01:00,12.9,8.2,29.80,West,270,15.0,17.0,81,0.00,,,0.00,Wunderground v.1.15,2013-01-12 12:01:00,
2013-01-12 06:08:00,13.0,8.5,29.81,West,280,15.0,29.0,82,0.00,,,0.00,Wunderground v.1.15,2013-01-12 12:08:00,
2013-01-12 06:10:00,13.0,8.5,29.81,West,271,14.0,29.0,82,0.00,,,0.00,Wunderground v.1.15,2013-01-12 12:10:00,
2013-01-12 06:12:00,13.0,8.5,29.81,West,262,14.0,29.0,82,0.00,,,0.00,Wunderground v.1.15,2013-01-12 12:12:00,
2013-01-12 06:14:00,13.1,8.6,29.81,West,272,15.0,29.0,82,0.00,,,0.00,Wunderground v.1.15,2013-01-12 12:14:00,
2013-01-12 06:18:00,13.2,9.0,29.82,West,260,15.0,29.0,83,0.00,,,0.00,Wunderground v.1.15,2013-01-12 12:18:00,
2013-01-12 06:19:00,13.2,9.0,29.82,West,280,16.0,16.0,83,0.00,,,0.00,Wunderground v.1.15,2013-01-12 12:19:00,
2013-01-12 06:21:00,13.2,9.0,29.82,West,270,15.0,29.0,83,0.00,,,0.00,Wunderground v.1.15,2013-01-12 12:21:00,
2013-01-12 06:23:00,13.3,9.1,29.83,WNW,291,15.0,29.0,83,0.00,,,0.00,Wunderground v.1.15,2013-01-12 12:23:00,
2013-01-12 06:26:00,13.3,8.8,29.83,West,271,14.0,29.0,82,0.00,,,0.00,Wunderground v.1.15,2013-01-12 12:26:00,
2013-01-12 06:28:00,13.3,8.8,29.83,West,276,14.0,29.0,82,0.00,,,0.00,Wunderground v.1.15,2013-01-12 12:28:00,
2013-01-12 06:32:00,13.4,9.2,29.84,West,278,13.0,29.0,83,0.00,,,0.00,Wunderground v.1.15,2013-01-12 12:32:00,
2013-01-12 06:34:00,13.4,8.9,29.84,West,280,13.0,29.0,82,0.00,,,0.00,Wunderground v.1.15,2013-01-12 12:34:00,
2013-01-12 06:36:00,13.4,8.9,29.84,West,280,12.0,29.0,82,0.00,,,0.00,Wunderground v.1.15,2013-01-12 12:36:00,
2013-01-12 06:38:00,13.4,9.2,29.84,WNW,291,12.0,29.0,83,0.00,,,0.00,Wunderground v.1.15,2013-01-12 12:38:00,
2013-01-12 06:40:00,13.4,9.2,29.84,West,276,12.0,12.0,83,0.00,,,0.00,Wunderground v.1.15,2013-01-12 12:40:00,
2013-01-12 06:41:00,13.5,9.3,29.84,WNW,283,12.0,29.0,83,0.00,,,0.00,Wunderground v.1.15,2013-01-12 12:41:00,
2013-01-12 06:43:00,13.5,9.6,29.84,West,277,11.0,29.0,84,0.00,,,0.00,Wunderground v.1.15,2013-01-12 12:43:00,
2013-01-12 06:46:00,13.6,9.7,29.85,WSW,257,10.0,29.0,84,0.00,,,0.00,Wunderground v.1.15,2013-01-12 12:46:00,
2013-01-12 06:50:00,13.7,10.0,29.85,West,259,9.0,29.0,85,0.00,,,0.00,Wunderground v.1.15,2013-01-12 12:50:00,
2013-01-12 06:52:00,13.7,10.0,29.85,WNW,287,9.0,29.0,85,0.00,,,0.00,Wunderground v.1.15,2013-01-12 12:52:00,
2013-01-12 06:56:00,13.8,10.6,29.85,West,275,10.0,29.0,87,0.00,,,0.00,Wunderground v.1.15,2013-01-12 12:56:00,
2013-01-12 06:58:00,13.9,10.7,29.85,West,263,10.0,29.0,87,0.00,,,0.00,Wunderground v.1.15,2013-01-12 12:58:00,
2013-01-12 07:02:00,13.9,10.7,29.85,West,261,11.0,29.0,87,0.00,,,0.00,Wunderground v.1.15,2013-01-12 13:02:00,
2013-01-12 07:03:00,13.7,10.5,29.86,West,270,12.0,29.0,87,0.00,,,0.00,Wunderground v.1.15,2013-01-12 13:03:00,
2013-01-12 07:08:00,13.5,9.6,29.86,WNW,285,14.0,29.0,84,0.00,,,0.00,Wunderground v.1.15,2013-01-12 13:08:00,
2013-01-12 07:10:00,13.5,9.6,29.86,West,264,15.0,15.0,84,0.00,,,0.00,Wunderground v.1.15,2013-01-12 13:10:00,
2013-01-12 07:14:00,13.4,9.2,29.87,West,259,15.0,29.0,83,0.00,,,0.00,Wunderground v.1.15,2013-01-12 13:14:00,
2013-01-12 07:18:00,13.2,8.7,29.86,WNW,283,14.0,29.0,82,0.00,,,0.00,Wunderground v.1.15,2013-01-12 13:18:00,
2013-01-12 07:20:00,13.1,8.6,29.86,WNW,285,13.0,13.0,82,0.00,,,0.00,Wunderground v.1.15,2013-01-12 13:20:00,
2013-01-12 07:22:00,13.1,8.9,29.87,West,271,13.0,29.0,83,0.00,,,0.00,Wunderground v.1.15,2013-01-12 13:22:00,
2013-01-12 07:23:00,13.0,9.1,29.87,West,276,13.0,29.0,84,0.00,,,0.00,Wunderground v.1.15,2013-01-12 13:23:00,
2013-01-12 07:27:00,12.9,9.2,29.87,West,277,12.0,29.0,85,0.00,,,0.00,Wunderground v.1.15,2013-01-12 13:27:00,
2013-01-12 07:30:00,12.9,9.2,29.87,West,276,12.0,29.0,85,0.00,,,0.00,Wunderground v.1.15,2013-01-12 13:30:00,
2013-01-12 07:32:00,12.8,9.1,29.87,West,280,13.0,29.0,85,0.00,,,0.00,Wunderground v.1.15,2013-01-12 13:32:00,
2013-01-12 07:36:00,12.7,9.0,29.87,WNW,288,13.0,29.0,85,0.00,,,0.00,Wunderground v.1.15,2013-01-12 13:36:00,
2013-01-12 07:38:00,12.7,9.0,29.88,West,274,14.0,29.0,85,0.00,,,0.00,Wunderground v.1.15,2013-01-12 13:38:00,
2013-01-12 07:44:00,12.7,9.0,29.88,WNW,283,13.0,29.0,85,0.00,,,0.00,Wunderground v.1.15,2013-01-12 13:44:00,
2013-01-12 07:45:00,12.7,9.0,29.88,WNW,283,12.0,29.0,85,0.00,,,0.00,Wunderground v.1.15,2013-01-12 13:45:00,
2013-01-12 07:47:00,12.7,9.3,29.88,West,266,11.0,29.0,86,0.00,,,0.00,Wunderground v.1.15,2013-01-12 13:47:00,
2013-01-12 07:50:00,12.6,8.9,29.88,West,264,11.0,29.0,85,0.00,,,0.00,Wunderground v.1.15,2013-01-12 13:50:00,
2013-01-12 07:54:00,12.7,9.0,29.88,West,266,11.0,29.0,85,0.00,,,0.00,Wunderground v.1.15,2013-01-12 13:54:00,
2013-01-12 07:56:00,12.6,8.9,29.89,West,278,11.0,29.0,85,0.00,,,0.00,Wunderground v.1.15,2013-01-12 13:56:00,
2013-01-12 08:00:00,12.6,8.7,29.89,WNW,284,12.0,29.0,84,0.00,,,0.00,Wunderground v.1.15,2013-01-12 14:00:00,
2013-01-12 08:02:00,12.7,8.8,29.88,West,274,12.0,29.0,84,0.00,,,0.00,Wunderground v.1.15,2013-01-12 14:02:00,
2013-01-12 08:06:00,12.7,8.2,29.89,WNW,293,13.0,29.0,82,0.00,,,0.00,Wunderground v.1.15,2013-01-12 14:06:00,
2013-01-12 08:09:00,12.7,8.2,29.90,WNW,291,13.0,29.0,82,0.00,,,0.00,Wunderground v.1.15,2013-01-12 14:09:00,
2013-01-12 08:16:00,12.8,8.3,29.89,West,274,13.0,29.0,82,0.00,,,0.00,Wunderground v.1.15,2013-01-12 14:16:00,
2013-01-12 08:18:00,12.8,8.3,29.89,WNW,295,12.0,29.0,82,0.00,,,0.00,Wunderground v.1.15,2013-01-12 14:18:00,
2013-01-12 08:22:00,12.9,8.4,29.89,West,281,12.0,29.0,82,0.00,,,0.00,Wunderground v.1.15,2013-01-12 14:22:00,
2013-01-12 08:26:00,13.0,8.8,29.89,WNW,282,12.0,29.0,83,0.00,,,0.00,Wunderground v.1.15,2013-01-12 14:26:00,
2013-01-12 08:29:00,13.0,9.1,29.90,West,276,11.0,11.0,84,0.00,,,0.00,Wunderground v.1.15,2013-01-12 14:29:00,
2013-01-12 08:36:00,13.0,9.1,29.89,West,280,12.0,29.0,84,0.00,,,0.00,Wunderground v.1.15,2013-01-12 14:36:00,
2013-01-12 08:40:00,13.1,8.9,29.90,WNW,291,12.0,29.0,83,0.00,,,0.00,Wunderground v.1.15,2013-01-12 14:40:00,
2013-01-12 08:42:00,13.0,8.5,29.90,West,277,12.0,29.0,82,0.00,,,0.00,Wunderground v.1.15,2013-01-12 14:42:00,
2013-01-12 08:44:00,13.0,8.5,29.90,WNW,285,12.0,29.0,82,0.00,,,0.00,Wunderground v.1.15,2013-01-12 14:44:00,
2013-01-12 08:46:00,13.0,8.5,29.90,West,274,12.0,29.0,82,0.00,,,0.00,Wunderground v.1.15,2013-01-12 14:46:00,
2013-01-12 08:51:00,12.9,8.4,29.91,WNW,287,14.0,29.0,82,0.00,,,0.00,Wunderground v.1.15,2013-01-12 14:51:00,
2013-01-12 08:58:00,13.1,8.9,29.91,WNW,291,13.0,29.0,83,0.00,,,0.00,Wunderground v.1.15,2013-01-12 14:58:00,
2013-01-12 09:00:00,13.1,8.6,29.91,West,276,13.0,13.0,82,0.00,,,0.00,Wunderground v.1.15,2013-01-12 15:00:00,
2013-01-12 09:02:00,13.2,9.0,29.91,WNW,296,12.0,29.0,83,0.00,,,0.00,Wunderground v.1.15,2013-01-12 15:02:00,
2013-01-12 09:04:00,13.2,8.7,29.92,WNW,283,12.0,29.0,82,0.00,,,0.00,Wunderground v.1.15,2013-01-12 15:04:00,
2013-01-12 09:08:00,13.3,9.1,29.91,WNW,285,12.0,29.0,83,0.00,,,0.00,Wunderground v.1.15,2013-01-12 15:08:00,
2013-01-12 09:10:00,13.3,8.8,29.91,West,277,12.0,29.0,82,0.00,,,0.00,Wunderground v.1.15,2013-01-12 15:10:00,
2013-01-12 09:13:00,13.3,8.6,29.91,West,281,13.0,29.0,81,0.00,,,0.00,Wunderground v.1.15,2013-01-12 15:13:00,
2013-01-12 09:16:00,13.3,8.6,29.91,West,275,13.0,29.0,81,0.00,,,0.00,Wunderground v.1.15,2013-01-12 15:16:00,
2013-01-12 09:18:00,13.4,9.2,29.91,West,280,14.0,29.0,83,0.00,,,0.00,Wunderground v.1.15,2013-01-12 15:18:00,
2013-01-12 09:22:00,13.2,8.5,29.92,West,280,14.0,29.0,81,0.00,,,0.00,Wunderground v.1.15,2013-01-12 15:22:00,
2013-01-12 09:26:00,13.3,8.8,29.93,West,274,14.0,29.0,82,0.00,,,0.00,Wunderground v.1.15,2013-01-12 15:26:00,
2013-01-12 09:28:00,13.3,8.6,29.93,West,261,14.0,29.0,81,0.00,,,0.00,Wunderground v.1.15,2013-01-12 15:28:00,
2013-01-12 09:30:00,13.3,8.6,29.94,WSW,242,14.0,14.0,81,0.00,,,0.00,Wunderground v.1.15,2013-01-12 15:30:00,
2013-01-12 09:31:00,13.3,8.8,29.94,West,274,13.0,16.0,82,0.00,,,0.00,Wunderground v.1.15,2013-01-12 15:31:00,
2013-01-12 09:33:00,13.4,8.7,29.94,West,263,13.0,29.0,81,0.00,,,0.00,Wunderground v.1.15,2013-01-12 15:33:00,
2013-01-12 09:40:00,13.4,8.7,29.95,West,261,14.0,14.0,81,0.00,,,0.00,Wunderground v.1.15,2013-01-12 15:40:00,
2013-01-12 09:46:00,13.5,8.2,29.95,WNW,288,13.0,29.0,79,0.00,,,0.00,Wunderground v.1.15,2013-01-12 15:46:00,
2013-01-12 09:52:00,13.6,8.3,29.95,WNW,293,13.0,13.0,79,0.00,,,0.00,Wunderground v.1.15,2013-01-12 15:52:00,
2013-01-12 09:53:00,13.7,8.4,29.95,WNW,297,13.0,29.0,79,0.00,,,0.00,Wunderground v.1.15,2013-01-12 15:53:00,
2013-01-12 09:58:00,13.6,8.0,29.95,West,271,13.0,29.0,78,0.00,,,0.00,Wunderground v.1.15,2013-01-12 15:58:00,
2013-01-12 10:00:00,13.7,8.1,29.95,WNW,283,13.0,29.0,78,0.00,,,0.00,Wunderground v.1.15,2013-01-12 16:00:00,
2013-01-12 10:02:00,13.7,7.8,29.95,WNW,288,13.0,29.0,77,0.00,,,0.00,Wunderground v.1.15,2013-01-12 16:02:00,
2013-01-12 10:04:00,13.7,8.1,29.94,West,266,14.0,29.0,78,0.00,,,0.00,Wunderground v.1.15,2013-01-12 16:04:00,
2013-01-12 10:10:00,14.3,9.0,29.94,West,273,15.0,15.0,79,0.00,,,0.00,Wunderground v.1.15,2013-01-12 16:10:00,
2013-01-12 10:12:00,14.3,9.0,29.95,West,273,15.0,29.0,79,0.00,,,0.00,Wunderground v.1.15,2013-01-12 16:12:00,
2013-01-12 10:17:00,14.2,9.4,29.96,WNW,283,14.0,29.0,81,0.00,,,0.00,Wunderground v.1.15,2013-01-12 16:17:00,
2013-01-12 10:20:00,13.9,8.3,29.96,West,269,13.0,29.0,78,0.00,,,0.00,Wunderground v.1.15,2013-01-12 16:20:00,
2013-01-12 10:22:00,13.8,8.5,29.96,WSW,247,13.0,29.0,79,0.00,,,0.00,Wunderground v.1.15,2013-01-12 16:22:00,
2013-01-12 10:24:00,13.8,8.5,29.97,WNW,293,13.0,29.0,79,0.00,,,0.00,Wunderground v.1.15,2013-01-12 16:24:00,
2013-01-12 10:26:00,13.8,8.8,29.97,West,277,13.0,29.0,80,0.00,,,0.00,Wunderground v.1.15,2013-01-12 16:26:00,
2013-01-12 10:32:00,14.0,8.7,29.97,WNW,285,14.0,29.0,79,0.00,,,0.00,Wunderground v.1.15,2013-01-12 16:32:00,
2013-01-12 10:34:00,14.0,8.4,29.97,West,264,14.0,29.0,78,0.00,,,0.00,Wunderground v.1.15,2013-01-12 16:34:00,
2013-01-12 10:39:00,14.1,8.2,29.97,West,263,16.0,29.0,77,0.00,,,0.00,Wunderground v.1.15,2013-01-12 16:39:00,
2013-01-12 10:42:00,14.0,7.5,29.97,West,280,17.0,29.0,75,0.00,,,0.00,Wunderground v.1.15,2013-01-12 16:42:00,
2013-01-12 10:44:00,13.7,7.2,29.97,West,269,17.0,29.0,75,0.00,,,0.00,Wunderground v.1.15,2013-01-12 16:44:00,
2013-01-12 10:46:00,13.6,7.1,29.97,WNW,283,17.0,29.0,75,0.00,,,0.00,Wunderground v.1.15,2013-01-12 16:46:00,
2013-01-12 10:50:00,13.8,7.9,29.98,West,280,16.0,29.0,77,0.00,,,0.00,Wunderground v.1.15,2013-01-12 16:50:00,
2013-01-12 10:52:00,13.8,7.6,29.98,West,281,15.0,29.0,76,0.00,,,0.00,Wunderground v.1.15,2013-01-12 16:52:00,
2013-01-12 10:56:00,13.7,6.9,29.98,WNW,295,15.0,29.0,74,0.00,,,0.00,Wunderground v.1.15,2013-01-12 16:56:00,
2013-01-12 10:57:00,13.7,7.2,29.99,West,264,15.0,29.0,75,0.00,,,0.00,Wunderground v.1.15,2013-01-12 16:57:00,
2013-01-12 11:02:00,13.9,7.7,29.98,West,281,16.0,29.0,76,0.00,,,0.00,Wunderground v.1.15,2013-01-12 17:02:00,
2013-01-12 11:04:00,14.0,7.5,29.99,WNW,291,16.0,29.0,75,0.00,,,0.00,Wunderground v.1.15,2013-01-12 17:04:00,
2013-01-12 11:10:00,14.3,8.4,29.99,West,277,15.0,29.0,77,0.00,,,0.00,Wunderground v.1.15,2013-01-12 17:10:00,
2013-01-12 11:14:00,14.3,8.1,29.99,West,264,15.0,29.0,76,0.00,,,0.00,Wunderground v.1.15,2013-01-12 17:14:00,
2013-01-12 11:16:00,14.4,8.5,29.99,WNW,291,14.0,29.0,77,0.00,,,0.00,Wunderground v.1.15,2013-01-12 17:16:00,
2013-01-12 11:18:00,14.4,8.2,29.99,WNW,303,14.0,29.0,76,0.00,,,0.00,Wunderground v.1.15,2013-01-12 17:18:00,
2013-01-12 11:21:00,14.3,7.8,29.99,WSW,257,15.0,29.0,75,0.00,,,0.00,Wunderground v.1.15,2013-01-12 17:21:00,
2013-01-12 11:28:00,14.8,8.3,29.98,West,281,16.0,29.0,75,0.00,,,0.00,Wunderground v.1.15,2013-01-12 17:28:00,
2013-01-12 11:30:00,14.7,8.2,29.99,West,260,16.0,16.0,75,0.00,,,0.00,Wunderground v.1.15,2013-01-12 17:30:00,
2013-01-12 11:32:00,14.8,8.6,29.99,WNW,285,15.0,29.0,76,0.00,,,0.00,Wunderground v.1.15,2013-01-12 17:32:00,
2013-01-12 11:36:00,14.5,7.7,29.99,WNW,285,14.0,29.0,74,0.00,,,0.00,Wunderground v.1.15,2013-01-12 17:36:00,
2013-01-12 11:41:00,14.2,7.4,29.98,West,277,14.0,29.0,74,0.00,,,0.00,Wunderground v.1.15,2013-01-12 17:41:00,
2013-01-12 11:46:00,14.2,7.7,29.99,WNW,283,14.0,29.0,75,0.00,,,0.00,Wunderground v.1.15,2013-01-12 17:46:00,
2013-01-12 11:50:00,13.9,6.8,29.99,West,259,15.0,29.0,73,0.00,,,0.00,Wunderground v.1.15,2013-01-12 17:50:00,
2013-01-12 11:54:00,13.9,7.4,29.99,West,263,15.0,29.0,75,0.00,,,0.00,Wunderground v.1.15,2013-01-12 17:54:00,
2013-01-12 11:56:00,13.9,7.1,29.99,WSW,257,15.0,29.0,74,0.00,,,0.00,Wunderground v.1.15,2013-01-12 17:56:00,
2013-01-12 11:58:00,14.0,7.8,29.99,West,267,15.0,29.0,76,0.00,,,0.00,Wunderground v.1.15,2013-01-12 17:58:00,
2013-01-12 12:00:00,14.0,7.2,29.99,WSW,248,15.0,29.0,74,0.00,,,0.00,Wunderground v.1.15,2013-01-12 18:00:00,
2013-01-12 12:03:00,13.9,7.1,29.99,West,262,16.0,29.0,74,0.00,,,0.00,Wunderground v.1.15,2013-01-12 18:03:00,
2013-01-12 12:10:00,15.0,9.4,29.99,WNW,283,16.0,16.0,78,0.00,,,0.00,Wunderground v.1.15,2013-01-12 18:10:00,
2013-01-12 12:12:00,15.2,8.7,29.99,WNW,297,15.0,16.0,75,0.00,,,0.00,Wunderground v.1.15,2013-01-12 18:12:00,
2013-01-12 12:16:00,14.9,8.1,29.99,WNW,287,15.0,16.0,74,0.00,,,0.00,Wunderground v.1.15,2013-01-12 18:16:00,
2013-01-12 12:18:00,14.9,8.4,29.99,WNW,295,14.0,16.0,75,0.00,,,0.00,Wunderground v.1.15,2013-01-12 18:18:00,
2013-01-12 12:22:00,14.9,8.7,30.00,West,263,14.0,14.0,76,0.00,,,0.00,Wunderground v.1.15,2013-01-12 18:22:00,
2013-01-12 12:28:00,14.4,8.2,29.99,WNW,290,13.0,16.0,76,0.00,,,0.00,Wunderground v.1.15,2013-01-12 18:28:00,
2013-01-12 12:34:00,14.3,8.4,29.99,WNW,283,12.0,13.0,77,0.00,,,0.00,Wunderground v.1.15,2013-01-12 18:34:00,
2013-01-12 12:36:00,14.3,8.4,29.99,West,268,12.0,13.0,77,0.00,,,0.00,Wunderground v.1.15,2013-01-12 18:36:00,
2013-01-12 12:38:00,14.4,8.5,30.00,WNW,286,12.0,13.0,77,0.00,,,0.00,Wunderground v.1.15,2013-01-12 18:38:00,
2013-01-12 12:40:00,14.4,8.5,29.99,WNW,283,12.0,12.0,77,0.00,,,0.00,Wunderground v.1.15,2013-01-12 18:40:00,
2013-01-12 12:45:00,14.5,8.6,29.99,West,281,13.0,15.0,77,0.00,,,0.00,Wunderground v.1.15,2013-01-12 18:45:00,
2013-01-12 12:52:00,14.5,9.2,29.98,West,276,13.0,13.0,79,0.00,,,0.00,Wunderground v.1.15,2013-01-12 18:52:00,
2013-01-12 12:54:00,14.5,9.2,29.98,WNW,297,12.0,13.0,79,0.00,,,0.00,Wunderground v.1.15,2013-01-12 18:54:00,
2013-01-12 12:56:00,14.6,9.0,29.98,West,273,12.0,14.0,78,0.00,,,0.00,Wunderground v.1.15,2013-01-12 18:56:00,
2013-01-12 13:00:00,14.4,8.8,29.98,West,278,12.0,14.0,78,0.00,,,0.00,Wunderground v.1.15,2013-01-12 19:00:00,
2013-01-12 13:02:00,14.3,8.7,29.98,West,278,13.0,21.0,78,0.00,,,0.00,Wunderground v.1.15,2013-01-12 19:02:00,
2013-01-12 13:04:00,14.2,8.9,29.98,West,275,13.0,21.0,79,0.00,,,0.00,Wunderground v.1.15,2013-01-12 19:04:00,
2013-01-12 13:05:00,14.3,9.3,29.98,West,281,13.0,21.0,80,0.00,,,0.00,Wunderground v.1.15,2013-01-12 19:05:00,
2013-01-12 13:10:00,14.4,9.4,29.98,West,276,13.0,13.0,80,0.00,,,0.00,Wunderground v.1.15,2013-01-12 19:10:00,
2013-01-12 13:12:00,14.5,9.2,29.98,West,281,12.0,15.0,79,0.00,,,0.00,Wunderground v.1.15,2013-01-12 19:12:00,
2013-01-12 13:14:00,14.6,9.3,29.98,WSW,257,12.0,16.0,79,0.00,,,0.00,Wunderground v.1.15,2013-01-12 19:14:00,
2013-01-12 13:20:00,14.6,8.7,29.98,WNW,290,13.0,13.0,77,0.00,,,0.00,Wunderground v.1.15,2013-01-12 19:20:00,
2013-01-12 13:22:00,14.6,9.0,29.98,West,274,13.0,21.0,78,0.00,,,0.00,Wunderground v.1.15,2013-01-12 19:22:00,
2013-01-12 13:26:00,14.8,9.2,29.98,WNW,282,13.0,21.0,78,0.00,,,0.00,Wunderground v.1.15,2013-01-12 19:26:00,
2013-01-12 13:27:00,14.7,8.8,29.98,WNW,298,13.0,21.0,77,0.00,,,0.00,Wunderground v.1.15,2013-01-12 19:27:00,
2013-01-12 13:32:00,14.7,9.1,29.97,WNW,301,13.0,17.0,78,0.00,,,0.00,Wunderground v.1.15,2013-01-12 19:32:00,
2013-01-12 13:36:00,14.8,9.7,29.97,WNW,288,13.0,21.0,80,0.00,,,0.00,Wunderground v.1.15,2013-01-12 19:36:00,
2013-01-12 13:40:00,15.1,9.5,29.97,West,281,13.0,21.0,78,0.00,,,0.00,Wunderground v.1.15,2013-01-12 19:40:00,
2013-01-12 13:44:00,14.8,9.2,29.97,WNW,294,14.0,21.0,78,0.00,,,0.00,Wunderground v.1.15,2013-01-12 19:44:00,
2013-01-12 13:49:00,14.8,9.2,29.97,WNW,290,15.0,15.0,78,0.00,,,0.00,Wunderground v.1.15,2013-01-12 19:49:00,
2013-01-12 13:56:00,14.1,7.6,29.98,WNW,291,16.0,21.0,75,0.00,,,0.00,Wunderground v.1.15,2013-01-12 19:56:00,
2013-01-12 14:00:00,14.3,8.4,29.97,WNW,298,15.0,15.0,77,0.00,,,0.00,Wunderground v.1.15,2013-01-12 20:00:00,
2013-01-12 14:04:00,14.5,7.7,29.99,WNW,300,14.0,21.0,74,0.00,,,0.00,Wunderground v.1.15,2013-01-12 20:04:00,
2013-01-12 14:06:00,14.6,7.8,29.99,West,277,14.0,21.0,74,0.00,,,0.00,Wunderground v.1.15,2013-01-12 20:06:00,
2013-01-12 14:11:00,14.6,8.4,29.99,WNW,294,14.0,21.0,76,0.00,,,0.00,Wunderground v.1.15,2013-01-12 20:11:00,
2013-01-12 14:16:00,14.2,8.0,29.99,NW,308,15.0,21.0,76,0.00,,,0.00,Wunderground v.1.15,2013-01-12 20:16:00,
2013-01-12 14:18:00,14.0,8.1,30.00,WNW,296,15.0,21.0,77,0.00,,,0.00,Wunderground v.1.15,2013-01-12 20:18:00,
2013-01-12 14:22:00,13.4,7.8,30.00,WNW,299,14.0,21.0,78,0.00,,,0.00,Wunderground v.1.15,2013-01-12 20:22:00,
2013-01-12 14:24:00,13.3,7.4,30.00,WNW,296,14.0,21.0,77,0.00,,,0.01,Wunderground v.1.15,2013-01-12 20:24:00,
2013-01-12 14:30:00,13.1,7.0,29.99,WNW,300,13.0,13.0,76,0.00,,,0.01,Wunderground v.1.15,2013-01-12 20:30:00,
2013-01-12 14:31:00,13.0,6.9,29.99,NW,316,13.0,16.0,76,0.00,,,0.01,Wunderground v.1.15,2013-01-12 20:31:00,
2013-01-12 14:36:00,13.0,6.6,29.99,WNW,303,13.0,21.0,75,0.00,,,0.01,Wunderground v.1.15,2013-01-12 20:36:00,
2013-01-12 14:38:00,13.2,7.0,29.99,WNW,298,13.0,21.0,76,0.00,,,0.01,Wunderground v.1.15,2013-01-12 20:38:00,
2013-01-12 14:42:00,13.4,7.2,29.98,WNW,294,13.0,21.0,76,0.00,,,0.01,Wunderground v.1.15,2013-01-12 20:42:00,
2013-01-12 14:48:00,13.6,7.1,29.98,WNW,283,13.0,21.0,75,0.00,,,0.01,Wunderground v.1.15,2013-01-12 20:48:00,
2013-01-12 14:51:00,13.9,7.7,29.98,NW,314,13.0,21.0,76,0.00,,,0.01,Wunderground v.1.15,2013-01-12 20:51:00,
2013-01-12 14:53:00,14.0,7.8,29.98,WNW,290,13.0,21.0,76,0.00,,,0.01,Wunderground v.1.15,2013-01-12 20:53:00,
2013-01-12 15:00:00,13.7,7.8,29.98,WNW,297,13.0,13.0,77,0.00,,,0.01,Wunderground v.1.15,2013-01-12 21:00:00,
2013-01-12 15:02:00,13.7,8.1,29.98,NW,316,12.0,21.0,78,0.00,,,0.01,Wunderground v.1.15,2013-01-12 21:02:00,
2013-01-12 15:04:00,13.7,8.1,29.99,NW,304,12.0,21.0,78,0.00,,,0.01,Wunderground v.1.15,2013-01-12 21:04:00,
2013-01-12 15:10:00,13.5,8.2,29.99,WNW,288,12.0,12.0,79,0.00,,,0.01,Wunderground v.1.15,2013-01-12 21:10:00,
2013-01-12 15:15:00,13.4,7.5,30.00,NW,304,12.0,21.0,77,0.00,,,0.01,Wunderground v.1.15,2013-01-12 21:15:00,
2013-01-12 15:22:00,13.4,7.2,30.00,NW,308,13.0,21.0,76,0.00,,,0.01,Wunderground v.1.15,2013-01-12 21:22:00,
2013-01-12 15:28:00,13.1,7.2,30.01,WNW,283,12.0,21.0,77,0.00,,,0.01,Wunderground v.1.15,2013-01-12 21:28:00,
2013-01-12 15:30:00,13.0,6.9,30.01,WNW,300,12.0,12.0,76,0.00,,,0.01,Wunderground v.1.15,2013-01-12 21:30:00,
2013-01-12 15:34:00,13.2,7.0,30.01,West,279,12.0,21.0,76,0.00,,,0.01,Wunderground v.1.15,2013-01-12 21:34:00,
2013-01-12 15:36:00,13.3,7.4,30.02,WNW,295,12.0,21.0,77,0.00,,,0.01,Wunderground v.1.15,2013-01-12 21:36:00,
2013-01-12 15:38:00,13.3,6.9,30.02,West,279,12.0,21.0,75,0.00,,,0.01,Wunderground v.1.15,2013-01-12 21:38:00,
2013-01-12 15:40:00,13.2,6.8,30.02,NW,314,12.0,21.0,75,0.00,,,0.01,Wunderground v.1.15,2013-01-12 21:40:00,
2013-01-12 15:44:00,12.9,6.2,30.02,WNW,287,11.0,21.0,74,0.00,,,0.01,Wunderground v.1.15,2013-01-12 21:44:00,
2013-01-12 15:46:00,12.8,6.4,30.02,WNW,284,11.0,21.0,75,0.00,,,0.01,Wunderground v.1.15,2013-01-12 21:46:00,
2013-01-12 15:52:00,12.6,5.9,30.02,WNW,293,11.0,21.0,74,0.00,,,0.01,Wunderground v.1.15,2013-01-12 21:52:00,
2013-01-12 15:54:00,12.7,6.3,30.02,WNW,300,11.0,21.0,75,0.00,,,0.01,Wunderground v.1.15,2013-01-12 21:54:00,
2013-01-12 15:56:00,12.8,6.7,30.02,WNW,298,11.0,21.0,76,0.00,,,0.01,Wunderground v.1.15,2013-01-12 21:56:00,
2013-01-12 15:58:00,12.8,6.7,30.02,WNW,293,11.0,21.0,76,0.00,,,0.01,Wunderground v.1.15,2013-01-12 21:58:00,
2013-01-12 16:02:00,12.8,6.7,30.02,WNW,301,10.0,21.0,76,0.00,,,0.01,Wunderground v.1.15,2013-01-12 22:02:00,
2013-01-12 16:04:00,12.9,7.3,30.02,West,278,10.0,21.0,78,0.00,,,0.01,Wunderground v.1.15,2013-01-12 22:04:00,
2013-01-12 16:06:00,12.9,7.0,30.02,NW,312,10.0,21.0,77,0.00,,,0.01,Wunderground v.1.15,2013-01-12 22:06:00,
2013-01-12 16:10:00,12.8,6.7,30.03,WNW,291,9.0,9.0,76,0.00,,,0.01,Wunderground v.1.15,2013-01-12 22:10:00,
2013-01-12 16:16:00,12.8,6.7,30.03,NW,305,10.0,21.0,76,0.00,,,0.01,Wunderground v.1.15,2013-01-12 22:16:00,
2013-01-12 16:22:00,12.9,6.5,30.03,West,281,10.0,21.0,75,0.00,,,0.01,Wunderground v.1.15,2013-01-12 22:22:00,
2013-01-12 16:26:00,12.9,7.0,30.03,WNW,295,11.0,21.0,77,0.00,,,0.01,Wunderground v.1.15,2013-01-12 22:26:00,
2013-01-12 16:28:00,12.8,7.2,30.04,NW,304,10.0,21.0,78,0.00,,,0.01,Wunderground v.1.15,2013-01-12 22:28:00,
2013-01-12 16:32:00,12.7,7.4,30.04,WNW,287,10.0,21.0,79,0.00,,,0.01,Wunderground v.1.15,2013-01-12 22:32:00,
2013-01-12 16:38:00,12.6,7.3,30.04,WNW,293,9.0,21.0,79,0.00,,,0.01,Wunderground v.1.15,2013-01-12 22:38:00,
2013-01-12 16:42:00,12.4,6.6,30.03,WNW,283,9.0,21.0,77,0.00,,,0.01,Wunderground v.1.15,2013-01-12 22:42:00,
2013-01-12 16:44:00,12.3,6.7,30.03,NW,308,8.0,21.0,78,0.00,,,0.01,Wunderground v.1.15,2013-01-12 22:44:00,
2013-01-12 16:48:00,12.3,7.3,30.03,NW,308,8.0,21.0,80,0.00,,,0.01,Wunderground v.1.15,2013-01-12 22:48:00,
2013-01-12 16:50:00,12.2,7.2,30.03,NW,304,9.0,9.0,80,0.00,,,0.01,Wunderground v.1.15,2013-01-12 22:50:00,
2013-01-12 16:56:00,11.9,6.6,30.04,WNW,293,9.0,21.0,79,0.00,,,0.01,Wunderground v.1.15,2013-01-12 22:56:00,
2013-01-12 16:58:00,11.8,6.5,30.04,WNW,296,9.0,21.0,79,0.00,,,0.01,Wunderground v.1.15,2013-01-12 22:58:00,
2013-01-12 17:02:00,11.7,6.4,30.05,WNW,294,8.0,21.0,79,0.00,,,0.01,Wunderground v.1.15,2013-01-12 23:02:00,
2013-01-12 17:04:00,11.6,6.3,30.05,NW,308,7.0,21.0,79,0.00,,,0.01,Wunderground v.1.15,2013-01-12 23:04:00,
2013-01-12 17:10:00,11.4,5.9,30.05,WNW,300,9.0,21.0,78,0.00,,,0.01,Wunderground v.1.15,2013-01-12 23:10:00,
2013-01-12 17:12:00,11.4,5.9,30.05,WNW,293,9.0,21.0,78,0.00,,,0.01,Wunderground v.1.15,2013-01-12 23:12:00,
2013-01-12 17:17:00,11.2,5.7,30.04,NW,314,9.0,21.0,78,0.00,,,0.01,Wunderground v.1.15,2013-01-12 23:17:00,
2013-01-12 17:19:00,11.1,5.6,30.04,WNW,293,10.0,21.0,78,0.00,,,0.01,Wunderground v.1.15,2013-01-12 23:19:00,
2013-01-12 17:24:00,11.0,5.8,30.03,WNW,300,11.0,21.0,79,0.00,,,0.01,Wunderground v.1.15,2013-01-12 23:24:00,
2013-01-12 17:26:00,10.9,5.9,30.03,WNW,300,11.0,21.0,80,0.00,,,0.01,Wunderground v.1.15,2013-01-12 23:26:00,
2013-01-12 17:28:00,10.8,6.1,30.03,NW,304,11.0,21.0,81,0.00,,,0.01,Wunderground v.1.15,2013-01-12 23:28:00,
2013-01-12 17:34:00,10.6,5.6,30.03,WNW,297,11.0,21.0,80,0.00,,,0.01,Wunderground v.1.15,2013-01-12 23:34:00,
2013-01-12 17:36:00,10.5,5.5,30.03,WNW,293,11.0,21.0,80,0.00,,,0.01,Wunderground v.1.15,2013-01-12 23:36:00,
2013-01-12 17:40:00,10.4,5.2,30.04,WNW,288,11.0,11.0,79,0.00,,,0.01,Wunderground v.1.15,2013-01-12 23:40:00,
2013-01-12 17:42:00,10.3,5.1,30.04,WNW,297,10.0,21.0,79,0.00,,,0.01,Wunderground v.1.15,2013-01-12 23:42:00,
2013-01-12 17:48:00,10.3,5.1,30.04,WNW,293,9.0,21.0,79,0.00,,,0.01,Wunderground v.1.15,2013-01-12 23:48:00,
2013-01-12 17:54:00,10.2,4.7,30.04,NW,307,9.0,21.0,78,0.00,,,0.01,Wunderground v.1.15,2013-01-12 23:54:00,
2013-01-12 17:58:00,10.2,4.7,30.03,NW,315,10.0,21.0,78,0.00,,,0.01,Wunderground v.1.15,2013-01-12 23:58:00,
2013-01-12 18:00:00,10.1,4.9,30.03,WNW,302,9.0,9.0,79,0.00,,,0.01,Wunderground v.1.15,2013-01-13 00:00:00,
2013-01-12 18:04:00,10.1,4.6,30.05,WNW,296,9.0,21.0,78,0.00,,,0.01,Wunderground v.1.15,2013-01-13 00:04:00,
2013-01-12 18:06:00,10.0,4.5,30.05,NW,304,9.0,21.0,78,0.00,,,0.01,Wunderground v.1.15,2013-01-13 00:06:00,
2013-01-12 18:10:00,10.0,4.8,30.06,WNW,290,8.0,8.0,79,0.00,,,0.01,Wunderground v.1.15,2013-01-13 00:10:00,
2013-01-12 18:12:00,10.1,4.9,30.06,WNW,298,7.0,21.0,79,0.00,,,0.01,Wunderground v.1.15,2013-01-13 00:12:00,
2013-01-12 18:16:00,10.1,5.2,30.05,WNW,297,6.0,21.0,80,0.00,,,0.01,Wunderground v.1.15,2013-01-13 00:16:00,
2013-01-12 18:22:00,10.1,4.9,30.05,WNW,291,6.0,21.0,79,0.00,,,0.01,Wunderground v.1.15,2013-01-13 00:22:00,
2013-01-12 18:24:00,10.1,4.9,30.05,West,281,7.0,21.0,79,0.00,,,0.01,Wunderground v.1.15,2013-01-13 00:24:00,
2013-01-12 18:26:00,10.1,4.9,30.05,WNW,288,7.0,21.0,79,0.00,,,0.01,Wunderground v.1.15,2013-01-13 00:26:00,
2013-01-12 18:30:00,10.1,4.9,30.05,WNW,297,8.0,8.0,79,0.00,,,0.01,Wunderground v.1.15,2013-01-13 00:30:00,
2013-01-12 18:32:00,10.1,5.2,30.05,WNW,294,8.0,21.0,80,0.00,,,0.01,Wunderground v.1.15,2013-01-13 00:32:00,
2013-01-12 18:38:00,10.0,5.1,30.05,WNW,298,7.0,21.0,80,0.00,,,0.01,Wunderground v.1.15,2013-01-13 00:38:00,
2013-01-12 18:40:00,9.9,4.7,30.05,WNW,298,8.0,21.0,79,0.00,,,0.01,Wunderground v.1.15,2013-01-13 00:40:00,
2013-01-12 18:44:00,9.9,4.7,30.05,NW,311,9.0,21.0,79,0.00,,,0.01,Wunderground v.1.15,2013-01-13 00:44:00,
2013-01-12 18:48:00,9.9,4.7,30.07,WNW,301,10.0,21.0,79,0.00,,,0.01,Wunderground v.1.15,2013-01-13 00:48:00,
2013-01-12 18:50:00,10.0,4.8,30.05,NW,321,10.0,10.0,79,0.00,,,0.01,Wunderground v.1.15,2013-01-13 00:50:00,
2013-01-12 18:56:00,9.8,4.6,30.06,WNW,300,8.0,21.0,79,0.00,,,0.01,Wunderground v.1.15,2013-01-13 00:56:00,
2013-01-12 19:02:00,9.8,4.6,30.08,WNW,291,8.0,21.0,79,0.00,,,0.01,Wunderground v.1.15,2013-01-13 01:02:00,
2013-01-12 19:04:00,9.8,4.6,30.08,WNW,303,8.0,21.0,79,0.00,,,0.01,Wunderground v.1.15,2013-01-13 01:04:00,
2013-01-12 19:08:00,9.7,4.2,30.07,WNW,300,7.0,21.0,78,0.00,,,0.01,Wunderground v.1.15,2013-01-13 01:08:00,
2013-01-12 19:10:00,9.7,4.2,30.07,WNW,297,8.0,21.0,78,0.00,,,0.01,Wunderground v.1.15,2013-01-13 01:10:00,
2013-01-12 19:12:00,9.6,3.8,30.07,NNW,336,8.0,21.0,77,0.00,,,0.01,Wunderground v.1.15,2013-01-13 01:12:00,
2013-01-12 19:18:00,9.5,3.7,30.08,WNW,285,10.0,21.0,77,0.00,,,0.01,Wunderground v.1.15,2013-01-13 01:18:00,
2013-01-12 19:24:00,9.4,3.6,30.08,NW,305,9.0,21.0,77,0.00,,,0.01,Wunderground v.1.15,2013-01-13 01:24:00,
2013-01-12 19:26:00,9.4,3.6,30.09,NW,308,9.0,21.0,77,0.00,,,0.01,Wunderground v.1.15,2013-01-13 01:26:00,
2013-01-12 19:30:00,9.3,3.8,30.09,NW,311,9.0,21.0,78,0.00,,,0.01,Wunderground v.1.15,2013-01-13 01:30:00,
2013-01-12 19:36:00,9.2,4.0,30.10,West,275,8.0,21.0,79,0.00,,,0.01,Wunderground v.1.15,2013-01-13 01:36:00,
2013-01-12 19:38:00,9.2,3.7,30.10,WNW,287,8.0,21.0,78,0.00,,,0.01,Wunderground v.1.15,2013-01-13 01:38:00,
2013-01-12 19:42:00,9.1,3.4,30.09,WNW,285,8.0,21.0,77,0.00,,,0.01,Wunderground v.1.15,2013-01-13 01:42:00,
2013-01-12 19:46:00,8.9,2.9,30.08,NW,308,9.0,21.0,76,0.00,,,0.01,Wunderground v.1.15,2013-01-13 01:46:00,
2013-01-12 19:49:00,8.8,3.1,30.09,WNW,287,9.0,9.0,77,0.00,,,0.01,Wunderground v.1.15,2013-01-13 01:49:00,
2013-01-12 19:52:00,8.7,3.0,30.09,WNW,285,9.0,21.0,77,0.00,,,0.01,Wunderground v.1.15,2013-01-13 01:52:00,
2013-01-12 19:56:00,8.7,3.2,30.09,WNW,285,8.0,21.0,78,0.00,,,0.01,Wunderground v.1.15,2013-01-13 01:56:00,
2013-01-12 19:58:00,8.7,3.2,30.09,WNW,292,8.0,21.0,78,0.00,,,0.01,Wunderground v.1.15,2013-01-13 01:58:00,
2013-01-12 20:02:00,8.7,3.2,30.10,NW,305,7.0,21.0,78,0.00,,,0.01,Wunderground v.1.15,2013-01-13 02:02:00,
2013-01-12 20:04:00,8.6,3.1,30.11,West,276,7.0,21.0,78,0.00,,,0.01,Wunderground v.1.15,2013-01-13 02:04:00,
2013-01-12 20:06:00,8.7,3.5,30.10,WNW,285,7.0,21.0,79,0.00,,,0.01,Wunderground v.1.15,2013-01-13 02:06:00,
2013-01-12 20:08:00,8.7,3.5,30.10,WNW,291,7.0,21.0,79,0.00,,,0.01,Wunderground v.1.15,2013-01-13 02:08:00,
2013-01-12 20:11:00,8.5,3.3,30.10,WNW,291,7.0,21.0,79,0.00,,,0.01,Wunderground v.1.15,2013-01-13 02:11:00,
2013-01-12 20:14:00,8.5,3.3,30.10,WNW,293,7.0,21.0,79,0.00,,,0.01,Wunderground v.1.15,2013-01-13 02:14:00,
2013-01-12 20:20:00,8.3,3.1,30.09,WNW,294,6.0,21.0,79,0.00,,,0.01,Wunderground v.1.15,2013-01-13 02:20:00,
2013-01-12 20:22:00,8.3,3.1,30.09,WNW,294,6.0,21.0,79,0.00,,,0.01,Wunderground v.1.15,2013-01-13 02:22:00,
2013-01-12 20:24:00,8.3,2.9,30.09,WNW,295,7.0,21.0,78,0.00,,,0.01,Wunderground v.1.15,2013-01-13 02:24:00,
2013-01-12 20:26:00,8.3,2.9,30.10,West,281,7.0,21.0,78,0.00,,,0.01,Wunderground v.1.15,2013-01-13 02:26:00,
2013-01-12 20:31:00,8.1,2.7,30.09,WNW,300,8.0,10.0,78,0.00,,,0.01,Wunderground v.1.15,2013-01-13 02:31:00,
2013-01-12 20:36:00,8.1,2.9,30.09,WNW,294,8.0,21.0,79,0.00,,,0.01,Wunderground v.1.15,2013-01-13 02:36:00,
2013-01-12 20:38:00,8.1,2.9,30.09,WNW,293,8.0,21.0,79,0.00,,,0.01,Wunderground v.1.15,2013-01-13 02:38:00,
2013-01-12 20:42:00,8.0,2.8,30.10,NW,305,8.0,21.0,79,0.00,,,0.01,Wunderground v.1.15,2013-01-13 02:42:00,
2013-01-12 20:44:00,8.0,2.8,30.09,WNW,285,7.0,21.0,79,0.00,,,0.01,Wunderground v.1.15,2013-01-13 02:44:00,
2013-01-12 20:48:00,7.9,2.7,30.09,WNW,301,7.0,21.0,79,0.00,,,0.01,Wunderground v.1.15,2013-01-13 02:48:00,
2013-01-12 20:54:00,7.8,2.6,30.07,WNW,295,7.0,21.0,79,0.00,,,0.01,Wunderground v.1.15,2013-01-13 02:54:00,
2013-01-12 20:59:00,7.6,2.7,30.08,NW,323,8.0,21.0,80,0.00,,,0.01,Wunderground v.1.15,2013-01-13 02:59:00,
2013-01-12 21:01:00,7.6,2.7,30.08,WNW,293,8.0,21.0,80,0.00,,,0.01,Wunderground v.1.15,2013-01-13 03:01:00,
2013-01-12 21:06:00,7.4,2.5,30.07,WNW,297,8.0,21.0,80,0.00,,,0.01,Wunderground v.1.15,2013-01-13 03:06:00,
2013-01-12 21:08:00,7.4,2.5,30.08,WNW,293,8.0,21.0,80,0.00,,,0.01,Wunderground v.1.15,2013-01-13 03:08:00,
2013-01-12 21:10:00,7.4,2.5,30.08,NW,308,8.0,21.0,80,0.00,,,0.01,Wunderground v.1.15,2013-01-13 03:10:00,
2013-01-12 21:12:00,7.4,2.5,30.08,WNW,302,8.0,21.0,80,0.00,,,0.01,Wunderground v.1.15,2013-01-13 03:12:00,
2013-01-12 21:16:00,7.3,2.4,30.09,WNW,298,8.0,21.0,80,0.00,,,0.01,Wunderground v.1.15,2013-01-13 03:16:00,
2013-01-12 21:18:00,7.3,2.2,30.09,NNW,333,8.0,21.0,79,0.00,,,0.01,Wunderground v.1.15,2013-01-13 03:18:00,
2013-01-12 21:20:00,7.3,2.4,30.09,WNW,302,8.0,8.0,80,0.00,,,0.01,Wunderground v.1.15,2013-01-13 03:20:00,
2013-01-12 21:23:00,7.3,2.4,30.10,WNW,293,8.0,21.0,80,0.00,,,0.01,Wunderground v.1.15,2013-01-13 03:23:00,
2013-01-12 21:26:00,7.2,2.3,30.09,WNW,303,8.0,21.0,80,0.00,,,0.01,Wunderground v.1.15,2013-01-13 03:26:00,
2013-01-12 21:30:00,7.2,2.3,30.09,WNW,293,7.0,7.0,80,0.00,,,0.01,Wunderground v.1.15,2013-01-13 03:30:00,
2013-01-12 21:34:00,7.1,2.2,30.10,WNW,303,7.0,21.0,80,0.00,,,0.01,Wunderground v.1.15,2013-01-13 03:34:00,
2013-01-12 21:36:00,7.1,2.2,30.10,NW,308,7.0,21.0,80,0.00,,,0.01,Wunderground v.1.15,2013-01-13 03:36:00,
2013-01-12 21:40:00,7.0,2.1,30.09,WNW,294,8.0,21.0,80,0.00,,,0.01,Wunderground v.1.15,2013-01-13 03:40:00,
2013-01-12 21:42:00,7.0,2.1,30.09,NW,321,8.0,21.0,80,0.00,,,0.01,Wunderground v.1.15,2013-01-13 03:42:00,
2013-01-12 21:45:00,6.9,2.3,30.09,NW,311,8.0,21.0,81,0.00,,,0.01,Wunderground v.1.15,2013-01-13 03:45:00,
2013-01-12 21:48:00,6.9,2.0,30.09,NW,315,8.0,21.0,80,0.00,,,0.01,Wunderground v.1.15,2013-01-13 03:48:00,
2013-01-12 21:52:00,6.8,2.2,30.09,WNW,301,7.0,21.0,81,0.00,,,0.01,Wunderground v.1.15,2013-01-13 03:52:00,
2013-01-12 21:54:00,6.8,1.9,30.09,NW,309,8.0,21.0,80,0.00,,,0.01,Wunderground v.1.15,2013-01-13 03:54:00,
2013-01-12 22:00:00,6.7,2.1,30.09,WNW,295,7.0,7.0,81,0.00,,,0.01,Wunderground v.1.15,2013-01-13 04:00:00,
2013-01-12 22:02:00,6.7,2.1,30.09,NW,316,7.0,9.0,81,0.00,,,0.01,Wunderground v.1.15,2013-01-13 04:02:00,
2013-01-12 22:03:00,6.7,2.1,30.09,WNW,290,7.0,10.0,81,0.00,,,0.01,Wunderground v.1.15,2013-01-13 04:03:00,
2013-01-12 22:08:00,6.7,2.1,30.09,NW,325,7.0,21.0,81,0.00,,,0.01,Wunderground v.1.15,2013-01-13 04:08:00,
2013-01-12 22:12:00,6.6,2.0,30.09,NW,304,7.0,21.0,81,0.00,,,0.01,Wunderground v.1.15,2013-01-13 04:12:00,
2013-01-12 22:14:00,6.5,2.2,30.09,NW,312,7.0,21.0,82,0.00,,,0.01,Wunderground v.1.15,2013-01-13 04:14:00,
2013-01-12 22:16:00,6.5,2.2,30.09,NW,309,7.0,21.0,82,0.00,,,0.01,Wunderground v.1.15,2013-01-13 04:16:00,
2013-01-12 22:20:00,6.5,2.2,30.09,NW,304,6.0,6.0,82,0.00,,,0.01,Wunderground v.1.15,2013-01-13 04:20:00,
2013-01-12 22:22:00,6.4,2.1,30.09,NNW,340,6.0,8.0,82,0.00,,,0.01,Wunderground v.1.15,2013-01-13 04:22:00,
2013-01-12 22:26:00,6.4,2.1,30.09,WNW,300,7.0,21.0,82,0.00,,,0.01,Wunderground v.1.15,2013-01-13 04:26:00,
2013-01-12 22:28:00,6.4,2.1,30.09,NW,309,7.0,21.0,82,0.00,,,0.01,Wunderground v.1.15,2013-01-13 04:28:00,
2013-01-12 22:30:00,6.4,2.1,30.09,NW,314,7.0,7.0,82,0.00,,,0.01,Wunderground v.1.15,2013-01-13 04:30:00,
2013-01-12 22:34:00,6.3,2.0,30.09,NW,314,7.0,10.0,82,0.00,,,0.01,Wunderground v.1.15,2013-01-13 04:34:00,
2013-01-12 22:40:00,6.4,2.1,30.09,NW,309,9.0,9.0,82,0.00,,,0.01,Wunderground v.1.15,2013-01-13 04:40:00,
2013-01-12 22:44:00,6.3,2.2,30.10,NW,304,8.0,21.0,83,0.00,,,0.01,Wunderground v.1.15,2013-01-13 04:44:00,
2013-01-12 22:46:00,6.3,2.2,30.10,NNW,333,8.0,21.0,83,0.00,,,0.01,Wunderground v.1.15,2013-01-13 04:46:00,
2013-01-12 22:48:00,6.3,2.2,30.10,NW,316,8.0,21.0,83,0.00,,,0.01,Wunderground v.1.15,2013-01-13 04:48:00,
2013-01-12 22:50:00,6.3,2.2,30.10,NW,308,7.0,21.0,83,0.00,,,0.01,Wunderground v.1.15,2013-01-13 04:50:00,
2013-01-12 22:54:00,6.3,2.2,30.09,NW,315,7.0,21.0,83,0.00,,,0.01,Wunderground v.1.15,2013-01-13 04:54:00,
2013-01-12 23:00:00,6.3,2.2,30.09,NW,318,8.0,21.0,83,0.00,,,0.01,Wunderground v.1.15,2013-01-13 05:00:00,
2013-01-12 23:06:00,6.3,2.2,30.09,NW,318,9.0,21.0,83,0.00,,,0.01,Wunderground v.1.15,2013-01-13 05:06:00,
2013-01-12 23:08:00,6.3,2.2,30.09,North,352,9.0,21.0,83,0.00,,,0.01,Wunderground v.1.15,2013-01-13 05:08:00,
2013-01-12 23:12:00,6.2,2.1,30.08,NW,313,9.0,10.0,83,0.00,,,0.01,Wunderground v.1.15,2013-01-13 05:12:00,
2013-01-12 23:18:00,6.2,2.1,30.09,NW,314,9.0,21.0,83,0.00,,,0.01,Wunderground v.1.15,2013-01-13 05:18:00,
2013-01-12 23:20:00,6.1,2.0,30.10,NW,318,8.0,8.0,83,0.00,,,0.01,Wunderground v.1.15,2013-01-13 05:20:00,
2013-01-12 23:24:00,6.1,2.3,30.09,NW,321,7.0,21.0,84,0.00,,,0.01,Wunderground v.1.15,2013-01-13 05:24:00,
2013-01-12 23:26:00,6.1,2.3,30.09,WNW,292,6.0,21.0,84,0.00,,,0.01,Wunderground v.1.15,2013-01-13 05:26:00,
2013-01-12 23:30:00,6.1,2.3,30.09,WNW,302,6.0,21.0,84,0.00,,,0.01,Wunderground v.1.15,2013-01-13 05:30:00,
2013-01-12 23:32:00,6.1,2.3,30.09,NW,304,7.0,21.0,84,0.00,,,0.01,Wunderground v.1.15,2013-01-13 05:32:00,
2013-01-12 23:36:00,6.2,2.4,30.10,NW,304,6.0,21.0,84,0.00,,,0.01,Wunderground v.1.15,2013-01-13 05:36:00,
2013-01-12 23:38:00,6.3,2.8,30.09,NNW,328,7.0,21.0,85,0.00,,,0.01,Wunderground v.1.15,2013-01-13 05:38:00,
2013-01-12 23:42:00,6.3,2.8,30.10,NW,314,7.0,9.0,85,0.00,,,0.01,Wunderground v.1.15,2013-01-13 05:42:00,
2013-01-12 23:46:00,6.2,1.9,30.10,NNW,339,8.0,21.0,82,0.00,,,0.01,Wunderground v.1.15,2013-01-13 05:46:00,
2013-01-12 23:48:00,6.1,1.5,30.10,NW,321,8.0,21.0,81,0.00,,,0.01,Wunderground v.1.15,2013-01-13 05:48:00,
2013-01-12 23:54:00,5.9,1.1,30.10,NW,324,9.0,21.0,80,0.00,,,0.01,Wunderground v.1.15,2013-01-13 05:54:00,
2013-01-12 23:58:00,5.7,0.9,30.10,NW,316,9.0,21.0,80,0.00,,,0.01,Wunderground v.1.15,2013-01-13 05:58:00,